Location: G�migny
(47.9646°N, 1.6950°E)
Time: 21:05:31
(UTC+00:00)

YAOGAN 6 - Pass Details

Date: 24 January 2020
Orbit: 465 x 506 km, 97.0° (Epoch: 23 February)

Event Time Altitude Azimuth Distance (km) Brightness Sun altitude
Rises 06:04:18 0° 23° (NNE) 2,546 6.4 -14.4°
Reaches altitude 10° 06:06:39 10° 38° (NE) 1,654 5.6 -14.0°
Maximum altitude 06:09:37 24° 94° (E) 1,009 5.1 -13.5°
Drops below altitude 10° 06:12:32 10° 151° (SSE) 1,626 5.9 -13.0°
Sets 06:14:49 0° 165° (SSE) 2,493 6.6 -12.7°
